Year,Month,Day,Hour,Minute,Value (Times are PST for temperature in C)
2006,07,20,00,00,14.70
2006,07,20,00,01,14.80
2006,07,20,00,02,14.80
2006,07,20,00,03,14.80
2006,07,20,00,04,14.80
2006,07,20,00,05,14.80
2006,07,20,00,06,14.80
2006,07,20,00,07,14.80
2006,07,20,00,08,14.80
2006,07,20,00,09,14.70
2006,07,20,00,10,14.70
2006,07,20,00,11,14.70
2006,07,20,00,12,14.60
2006,07,20,00,13,14.60
2006,07,20,00,14,14.60
2006,07,20,00,15,14.60
2006,07,20,00,16,14.60
2006,07,20,00,17,14.60
2006,07,20,00,18,14.60
2006,07,20,00,19,14.60
2006,07,20,00,20,14.60
2006,07,20,00,21,14.60
2006,07,20,00,22,14.60
2006,07,20,00,23,14.60
2006,07,20,00,24,14.60
2006,07,20,00,25,14.60
2006,07,20,00,26,14.60
2006,07,20,00,27,14.50
2006,07,20,00,28,14.50
2006,07,20,00,29,14.40
2006,07,20,00,30,14.40
2006,07,20,00,31,14.40
2006,07,20,00,32,14.30
2006,07,20,00,33,14.30
2006,07,20,00,34,14.20
2006,07,20,00,35,14.20
2006,07,20,00,36,14.20
2006,07,20,00,37,14.20
2006,07,20,00,38,14.10
2006,07,20,00,39,14.10
2006,07,20,00,40,14.10
2006,07,20,00,41,14.00
2006,07,20,00,42,14.00
2006,07,20,00,43,14.00
2006,07,20,00,44,14.00
2006,07,20,00,45,14.10
2006,07,20,00,46,14.10
2006,07,20,00,47,14.20
2006,07,20,00,48,14.20
2006,07,20,00,49,14.20
2006,07,20,00,50,14.20
2006,07,20,00,51,14.30
2006,07,20,00,52,14.40
2006,07,20,00,53,14.50
2006,07,20,00,54,14.60
2006,07,20,00,55,14.70
2006,07,20,00,56,14.70
2006,07,20,00,57,14.80
2006,07,20,00,58,14.80
2006,07,20,00,59,14.80
2006,07,20,01,00,14.80
2006,07,20,01,01,14.70
2006,07,20,01,02,14.70
2006,07,20,01,03,14.60
2006,07,20,01,04,14.60
2006,07,20,01,05,14.50
2006,07,20,01,06,14.50
2006,07,20,01,07,14.40
2006,07,20,01,08,14.40
2006,07,20,01,09,14.30
2006,07,20,01,10,14.30
2006,07,20,01,11,14.30
2006,07,20,01,12,14.40
2006,07,20,01,13,14.40
2006,07,20,01,14,14.40
2006,07,20,01,15,14.40
2006,07,20,01,16,14.40
2006,07,20,01,17,14.40
2006,07,20,01,18,14.40
2006,07,20,01,19,14.50
2006,07,20,01,20,14.50
2006,07,20,01,21,14.50
2006,07,20,01,22,14.50
2006,07,20,01,23,14.50
2006,07,20,01,24,14.50
2006,07,20,01,25,14.50
2006,07,20,01,26,14.60
2006,07,20,01,27,14.60
2006,07,20,01,28,14.60
2006,07,20,01,29,14.70
2006,07,20,01,30,14.70
2006,07,20,01,31,14.80
2006,07,20,01,32,14.80
2006,07,20,01,33,14.80
2006,07,20,01,34,14.90
2006,07,20,01,35,14.90
2006,07,20,01,36,15.00
2006,07,20,01,37,15.00
2006,07,20,01,38,15.00
2006,07,20,01,39,15.10
2006,07,20,01,40,15.10
2006,07,20,01,41,15.20
2006,07,20,01,42,15.20
2006,07,20,01,43,15.30
2006,07,20,01,44,15.30
2006,07,20,01,45,15.30
2006,07,20,01,46,15.30
2006,07,20,01,47,15.30
2006,07,20,01,48,15.40
2006,07,20,01,49,15.40
2006,07,20,01,50,15.40
2006,07,20,01,51,15.40
2006,07,20,01,52,15.40
2006,07,20,01,53,15.40
2006,07,20,01,54,15.50
2006,07,20,01,55,15.50
2006,07,20,01,56,15.50
2006,07,20,01,57,15.50
2006,07,20,01,58,15.50
2006,07,20,01,59,15.50
2006,07,20,02,00,15.50
2006,07,20,02,01,15.50
2006,07,20,02,02,15.50
2006,07,20,02,03,15.50
2006,07,20,02,04,15.50
2006,07,20,02,05,15.50
2006,07,20,02,06,15.50
2006,07,20,02,07,15.50
2006,07,20,02,08,15.50
2006,07,20,02,09,15.50
2006,07,20,02,10,15.50
2006,07,20,02,11,15.50
2006,07,20,02,12,15.50
2006,07,20,02,13,15.50
2006,07,20,02,14,15.50
2006,07,20,02,15,15.50
2006,07,20,02,16,15.50
2006,07,20,02,17,15.50
2006,07,20,02,18,15.50
2006,07,20,02,19,15.50
2006,07,20,02,20,15.50
2006,07,20,02,21,15.50
2006,07,20,02,22,15.50
2006,07,20,02,23,15.50
2006,07,20,02,24,15.50
2006,07,20,02,25,15.40
2006,07,20,02,26,15.40
2006,07,20,02,27,15.40
2006,07,20,02,28,15.40
2006,07,20,02,29,15.40
2006,07,20,02,30,15.30
2006,07,20,02,31,15.30
2006,07,20,02,32,15.30
2006,07,20,02,33,15.30
2006,07,20,02,34,15.30
2006,07,20,02,35,15.30
2006,07,20,02,36,15.30
2006,07,20,02,37,15.30
2006,07,20,02,38,15.30
2006,07,20,02,39,15.30
2006,07,20,02,40,15.30
2006,07,20,02,41,15.30
2006,07,20,02,42,15.30
2006,07,20,02,43,15.30
2006,07,20,02,44,15.30
2006,07,20,02,45,15.30
2006,07,20,02,46,15.30
2006,07,20,02,47,15.30
2006,07,20,02,48,15.30
2006,07,20,02,49,15.30
2006,07,20,02,50,15.30
2006,07,20,02,51,15.30
2006,07,20,02,52,15.30
2006,07,20,02,53,15.30
2006,07,20,02,54,15.30
2006,07,20,02,55,15.30
2006,07,20,02,56,15.30
2006,07,20,02,57,15.30
2006,07,20,02,58,15.30
2006,07,20,02,59,15.40
2006,07,20,03,00,15.40
2006,07,20,03,01,15.40
2006,07,20,03,02,15.40
2006,07,20,03,03,15.40
2006,07,20,03,04,15.40
2006,07,20,03,05,15.40
2006,07,20,03,06,15.40
2006,07,20,03,07,15.40
2006,07,20,03,08,15.40
2006,07,20,03,09,15.40
2006,07,20,03,10,15.40
2006,07,20,03,11,15.40
2006,07,20,03,12,15.40
2006,07,20,03,13,15.40
2006,07,20,03,14,15.40
2006,07,20,03,15,15.40
2006,07,20,03,16,15.40
2006,07,20,03,17,15.40
2006,07,20,03,18,15.40
2006,07,20,03,19,15.40
2006,07,20,03,20,15.40
2006,07,20,03,21,15.30
2006,07,20,03,22,15.30
2006,07,20,03,23,15.30
2006,07,20,03,24,15.30
2006,07,20,03,25,15.30
2006,07,20,03,26,15.30
2006,07,20,03,27,15.30
2006,07,20,03,28,15.30
2006,07,20,03,29,15.30
2006,07,20,03,30,15.30
2006,07,20,03,31,15.30
2006,07,20,03,32,15.30
2006,07,20,03,33,15.30
2006,07,20,03,34,15.30
2006,07,20,03,35,15.30
2006,07,20,03,36,15.30
2006,07,20,03,37,15.30
2006,07,20,03,38,15.30
2006,07,20,03,39,15.30
2006,07,20,03,40,15.30
2006,07,20,03,41,15.30
2006,07,20,03,42,15.30
2006,07,20,03,43,15.30
2006,07,20,03,44,15.30
2006,07,20,03,45,15.30
2006,07,20,03,46,15.30
2006,07,20,03,47,15.20
2006,07,20,03,48,15.20
2006,07,20,03,49,15.20
2006,07,20,03,50,15.20
2006,07,20,03,51,15.20
2006,07,20,03,52,15.10
2006,07,20,03,53,15.10
2006,07,20,03,54,15.10
2006,07,20,03,55,15.10
2006,07,20,03,56,15.10
2006,07,20,03,57,15.10
2006,07,20,03,58,15.10
2006,07,20,03,59,15.10
2006,07,20,04,00,15.20
2006,07,20,04,01,15.10
2006,07,20,04,02,15.10
2006,07,20,04,03,15.10
2006,07,20,04,04,15.10
2006,07,20,04,05,15.10
2006,07,20,04,06,15.10
2006,07,20,04,07,15.10
2006,07,20,04,08,15.10
2006,07,20,04,09,15.10
2006,07,20,04,10,15.10
2006,07,20,04,11,15.00
2006,07,20,04,12,15.00
2006,07,20,04,13,15.00
2006,07,20,04,14,15.00
2006,07,20,04,15,15.00
2006,07,20,04,16,15.00
2006,07,20,04,17,15.00
2006,07,20,04,18,15.00
2006,07,20,04,19,15.00
2006,07,20,04,20,14.90
2006,07,20,04,21,14.90
2006,07,20,04,22,14.90
2006,07,20,04,23,14.90
2006,07,20,04,24,14.90
2006,07,20,04,25,14.90
2006,07,20,04,26,14.90
2006,07,20,04,27,14.90
2006,07,20,04,28,14.90
2006,07,20,04,29,14.90
2006,07,20,04,30,14.90
2006,07,20,04,31,14.90
2006,07,20,04,32,14.90
2006,07,20,04,33,14.80
2006,07,20,04,34,14.80
2006,07,20,04,35,14.80
2006,07,20,04,36,14.80
2006,07,20,04,37,14.80
2006,07,20,04,38,14.80
2006,07,20,04,39,14.80
2006,07,20,04,40,14.80
2006,07,20,04,41,14.80
2006,07,20,04,42,14.70
2006,07,20,04,43,14.70
2006,07,20,04,44,14.70
2006,07,20,04,45,14.60
2006,07,20,04,46,14.60
2006,07,20,04,47,14.60
2006,07,20,04,48,14.60
2006,07,20,04,49,14.50
2006,07,20,04,50,14.50
2006,07,20,04,51,14.50
2006,07,20,04,52,14.40
2006,07,20,04,53,14.40
2006,07,20,04,54,14.40
2006,07,20,04,55,14.40
2006,07,20,04,56,14.40
2006,07,20,04,57,14.30
2006,07,20,04,58,14.30
2006,07,20,04,59,14.30
2006,07,20,05,00,14.30
2006,07,20,05,01,14.30
2006,07,20,05,02,14.30
2006,07,20,05,03,14.30
2006,07,20,05,04,14.30
2006,07,20,05,05,14.30
2006,07,20,05,06,14.30
2006,07,20,05,07,14.30
2006,07,20,05,08,14.30
2006,07,20,05,09,14.30
2006,07,20,05,10,14.30
2006,07,20,05,11,14.30
2006,07,20,05,12,14.30
2006,07,20,05,13,14.20
2006,07,20,05,14,14.20
2006,07,20,05,15,14.20
2006,07,20,05,16,14.20
2006,07,20,05,17,14.20
2006,07,20,05,18,14.20
2006,07,20,05,19,14.20
2006,07,20,05,20,14.20
2006,07,20,05,21,14.20
2006,07,20,05,22,14.20
2006,07,20,05,23,14.20
2006,07,20,05,24,14.20
2006,07,20,05,25,14.20
2006,07,20,05,26,14.20
2006,07,20,05,27,14.20
2006,07,20,05,28,14.20
2006,07,20,05,29,14.20
2006,07,20,05,30,14.20
2006,07,20,05,31,14.20
2006,07,20,05,32,14.20
2006,07,20,05,33,14.20
2006,07,20,05,34,14.20
2006,07,20,05,35,14.20
2006,07,20,05,36,14.20
2006,07,20,05,37,14.20
2006,07,20,05,38,14.20
2006,07,20,05,39,14.20
2006,07,20,05,40,14.20
2006,07,20,05,41,14.20
2006,07,20,05,42,14.20
2006,07,20,05,43,14.20
2006,07,20,05,44,14.20
2006,07,20,05,45,14.20
2006,07,20,05,46,14.20
2006,07,20,05,47,14.20
2006,07,20,05,48,14.20
2006,07,20,05,49,14.20
2006,07,20,05,50,14.20
2006,07,20,05,51,14.20
2006,07,20,05,52,14.20
2006,07,20,05,53,14.20
2006,07,20,05,54,14.20
2006,07,20,05,55,14.20
2006,07,20,05,56,14.20
2006,07,20,05,57,14.20
2006,07,20,05,58,14.20
2006,07,20,05,59,14.20
2006,07,20,06,00,14.20
2006,07,20,06,01,14.30
2006,07,20,06,02,14.30
2006,07,20,06,03,14.30
2006,07,20,06,04,14.30
2006,07,20,06,05,14.30
2006,07,20,06,06,14.30
2006,07,20,06,07,14.30
2006,07,20,06,08,14.30
2006,07,20,06,09,14.30
2006,07,20,06,10,14.30
2006,07,20,06,11,14.30
2006,07,20,06,12,14.30
2006,07,20,06,13,14.30
2006,07,20,06,14,14.30
2006,07,20,06,15,14.30
2006,07,20,06,16,14.40
2006,07,20,06,17,14.40
2006,07,20,06,18,14.40
2006,07,20,06,19,14.40
2006,07,20,06,20,14.40
2006,07,20,06,21,14.40
2006,07,20,06,22,14.40
2006,07,20,06,23,14.40
2006,07,20,06,24,14.40
2006,07,20,06,25,14.50
2006,07,20,06,26,14.50
2006,07,20,06,27,14.50
2006,07,20,06,28,14.50
2006,07,20,06,29,14.50
2006,07,20,06,30,14.50
2006,07,20,06,31,14.50
2006,07,20,06,32,14.50
2006,07,20,06,33,14.50
2006,07,20,06,34,14.50
2006,07,20,06,35,14.50
2006,07,20,06,36,14.50
2006,07,20,06,37,14.50
2006,07,20,06,38,14.50
2006,07,20,06,39,14.50
2006,07,20,06,40,14.50
2006,07,20,06,41,14.50
2006,07,20,06,42,14.50
2006,07,20,06,43,14.50
2006,07,20,06,44,14.50
2006,07,20,06,45,14.60
2006,07,20,06,46,14.60
2006,07,20,06,47,14.60
2006,07,20,06,48,14.60
2006,07,20,06,49,14.60
2006,07,20,06,50,14.60
2006,07,20,06,51,14.70
2006,07,20,06,52,14.70
2006,07,20,06,53,14.70
2006,07,20,06,54,14.70
2006,07,20,06,55,14.70
2006,07,20,06,56,14.70
2006,07,20,06,57,14.70
2006,07,20,06,58,14.70
2006,07,20,06,59,14.70
2006,07,20,07,00,14.70
2006,07,20,07,01,14.70
2006,07,20,07,02,14.70
2006,07,20,07,03,14.70
2006,07,20,07,04,14.80
2006,07,20,07,05,14.80
2006,07,20,07,06,14.80
2006,07,20,07,07,14.80
2006,07,20,07,08,14.80
2006,07,20,07,09,14.80
2006,07,20,07,10,14.90
2006,07,20,07,11,14.90
2006,07,20,07,12,14.90
2006,07,20,07,13,14.90
2006,07,20,07,14,15.00
2006,07,20,07,15,15.00
2006,07,20,07,16,15.00
2006,07,20,07,17,15.00
2006,07,20,07,18,15.10
2006,07,20,07,19,15.10
2006,07,20,07,20,15.10
2006,07,20,07,21,15.10
2006,07,20,07,22,15.10
2006,07,20,07,23,15.10
2006,07,20,07,24,15.20
2006,07,20,07,25,15.20
2006,07,20,07,26,15.20
2006,07,20,07,27,15.20
2006,07,20,07,28,15.20
2006,07,20,07,29,15.30
2006,07,20,07,30,15.30
2006,07,20,07,31,15.30
2006,07,20,07,32,15.30
2006,07,20,07,33,15.30
2006,07,20,07,34,15.30
2006,07,20,07,35,15.30
2006,07,20,07,36,15.40
2006,07,20,07,37,15.40
2006,07,20,07,38,15.40
2006,07,20,07,39,15.50
2006,07,20,07,40,15.50
2006,07,20,07,41,15.60
2006,07,20,07,42,15.60
2006,07,20,07,43,15.60
2006,07,20,07,44,15.70
2006,07,20,07,45,15.80
2006,07,20,07,46,15.80
2006,07,20,07,47,15.80
2006,07,20,07,48,15.80
2006,07,20,07,49,15.90
2006,07,20,07,50,15.90
2006,07,20,07,51,15.90
2006,07,20,07,52,16.00
2006,07,20,07,53,16.10
2006,07,20,07,54,16.10
2006,07,20,07,55,16.10
2006,07,20,07,56,16.20
2006,07,20,07,57,16.20
2006,07,20,07,58,16.30
2006,07,20,07,59,16.30
2006,07,20,08,00,16.40
2006,07,20,08,01,16.40
2006,07,20,08,02,16.50
2006,07,20,08,03,16.60
2006,07,20,08,04,16.70
2006,07,20,08,05,16.70
2006,07,20,08,06,16.70
2006,07,20,08,07,16.80
2006,07,20,08,08,16.90
2006,07,20,08,09,16.90
2006,07,20,08,10,17.00
2006,07,20,08,11,17.00
2006,07,20,08,12,17.10
2006,07,20,08,13,17.20
2006,07,20,08,14,17.20
2006,07,20,08,15,17.30
2006,07,20,08,16,17.30
2006,07,20,08,17,17.40
2006,07,20,08,18,17.50
2006,07,20,08,19,17.50
2006,07,20,08,20,17.60
2006,07,20,08,21,17.70
2006,07,20,08,22,17.70
2006,07,20,08,23,17.80
2006,07,20,08,24,17.90
2006,07,20,08,25,17.90
2006,07,20,08,26,18.00
2006,07,20,08,27,18.10
2006,07,20,08,28,18.20
2006,07,20,08,29,18.20
2006,07,20,08,30,18.20
2006,07,20,08,31,18.30
2006,07,20,08,32,18.30
2006,07,20,08,33,18.30
2006,07,20,08,34,18.30
2006,07,20,08,35,18.30
2006,07,20,08,36,18.30
2006,07,20,08,37,18.40
2006,07,20,08,38,18.40
2006,07,20,08,39,18.40
2006,07,20,08,40,18.40
2006,07,20,08,41,18.50
2006,07,20,08,42,18.50
2006,07,20,08,43,18.60
2006,07,20,08,44,18.60
2006,07,20,08,45,18.60
2006,07,20,08,46,18.70
2006,07,20,08,47,18.70
2006,07,20,08,48,18.80
2006,07,20,08,49,18.90
2006,07,20,08,50,18.90
2006,07,20,08,51,18.90
2006,07,20,08,52,18.90
2006,07,20,08,53,19.00
2006,07,20,08,54,19.10
2006,07,20,08,55,19.10
2006,07,20,08,56,19.10
2006,07,20,08,57,19.10
2006,07,20,08,58,19.10
2006,07,20,08,59,19.10
2006,07,20,09,00,19.20
2006,07,20,09,01,19.20
2006,07,20,09,02,19.30
2006,07,20,09,03,19.40
2006,07,20,09,04,19.40
2006,07,20,09,05,19.50
2006,07,20,09,06,19.60
2006,07,20,09,07,19.60
2006,07,20,09,08,19.70
2006,07,20,09,09,19.80
2006,07,20,09,10,19.80
2006,07,20,09,11,19.90
2006,07,20,09,12,19.90
2006,07,20,09,13,20.00
2006,07,20,09,14,20.10
2006,07,20,09,15,20.20
2006,07,20,09,16,20.20
2006,07,20,09,17,20.40
2006,07,20,09,18,20.60
2006,07,20,09,19,20.70
2006,07,20,09,20,20.80
2006,07,20,09,21,20.90
2006,07,20,09,22,21.00
2006,07,20,09,23,21.00
2006,07,20,09,24,21.00
2006,07,20,09,25,21.10
2006,07,20,09,26,21.10
2006,07,20,09,27,21.20
2006,07,20,09,28,21.20
2006,07,20,09,29,21.10
2006,07,20,09,30,21.10
2006,07,20,09,31,21.00
2006,07,20,09,32,21.00
2006,07,20,09,33,21.00
2006,07,20,09,34,21.00
2006,07,20,09,35,21.10
2006,07,20,09,36,21.10
2006,07,20,09,37,21.20
2006,07,20,09,38,21.30
2006,07,20,09,39,21.30
2006,07,20,09,40,21.30
2006,07,20,09,41,21.30
2006,07,20,09,42,21.30
2006,07,20,09,43,21.30
2006,07,20,09,44,21.40
2006,07,20,09,45,21.40
2006,07,20,09,46,21.40
2006,07,20,09,47,21.40
2006,07,20,09,48,21.40
2006,07,20,09,49,21.40
2006,07,20,09,50,21.40
2006,07,20,09,51,21.40
2006,07,20,09,52,21.30
2006,07,20,09,53,21.30
2006,07,20,09,54,21.30
2006,07,20,09,55,21.40
2006,07,20,09,56,21.40
2006,07,20,09,57,21.40
2006,07,20,09,58,21.40
2006,07,20,09,59,21.50
2006,07,20,10,00,21.50
2006,07,20,10,01,21.60
2006,07,20,10,02,21.60
2006,07,20,10,03,21.70
2006,07,20,10,04,21.70
2006,07,20,10,05,21.80
2006,07,20,10,06,21.90
2006,07,20,10,07,22.00
2006,07,20,10,08,22.00
2006,07,20,10,09,22.10
2006,07,20,10,10,22.10
2006,07,20,10,11,22.20
2006,07,20,10,12,22.30
2006,07,20,10,13,22.40
2006,07,20,10,14,22.40
2006,07,20,10,15,22.40
2006,07,20,10,16,22.40
2006,07,20,10,17,22.30
2006,07,20,10,18,22.30
2006,07,20,10,19,22.30
2006,07,20,10,20,22.20
2006,07,20,10,21,22.10
2006,07,20,10,22,22.10
2006,07,20,10,23,22.20
2006,07,20,10,24,22.20
2006,07,20,10,25,22.10
2006,07,20,10,26,22.10
2006,07,20,10,27,22.10
2006,07,20,10,28,22.00
2006,07,20,10,29,22.00
2006,07,20,10,30,22.00
2006,07,20,10,31,22.10
2006,07,20,10,32,22.10
2006,07,20,10,33,22.10
2006,07,20,10,34,22.20
2006,07,20,10,35,22.20
2006,07,20,10,36,22.30
2006,07,20,10,37,22.20
2006,07,20,10,38,22.20
2006,07,20,10,39,22.10
2006,07,20,10,40,22.10
2006,07,20,10,41,22.00
2006,07,20,10,42,22.00
2006,07,20,10,43,22.00
2006,07,20,10,44,22.00
2006,07,20,10,45,22.10
2006,07,20,10,46,22.20
2006,07,20,10,47,22.30
2006,07,20,10,48,22.40
2006,07,20,10,49,22.50
2006,07,20,10,50,22.50
2006,07,20,10,51,22.60
2006,07,20,10,52,22.60
2006,07,20,10,53,22.60
2006,07,20,10,54,22.60
2006,07,20,10,55,22.70
2006,07,20,10,56,22.70
2006,07,20,10,57,22.70
2006,07,20,10,58,22.70
2006,07,20,10,59,22.80
2006,07,20,11,00,22.80
2006,07,20,11,01,22.90
2006,07,20,11,02,22.90
2006,07,20,11,03,22.90
2006,07,20,11,04,22.90
2006,07,20,11,05,22.90
2006,07,20,11,06,23.00
2006,07,20,11,07,23.10
2006,07,20,11,08,23.00
2006,07,20,11,09,23.00
2006,07,20,11,10,23.10
2006,07,20,11,11,23.10
2006,07,20,11,12,23.10
2006,07,20,11,13,23.20
2006,07,20,11,14,23.20
2006,07,20,11,15,23.20
2006,07,20,11,16,23.00
2006,07,20,11,17,23.00
2006,07,20,11,18,23.10
2006,07,20,11,19,23.20
2006,07,20,11,20,23.30
2006,07,20,11,21,23.30
2006,07,20,11,22,23.30
2006,07,20,11,23,23.30
2006,07,20,11,24,23.40
2006,07,20,11,25,23.40
2006,07,20,11,26,23.40
2006,07,20,11,27,23.50
2006,07,20,11,28,23.60
2006,07,20,11,29,23.70
2006,07,20,11,30,23.60
2006,07,20,11,31,23.60
2006,07,20,11,32,23.60
2006,07,20,11,33,23.60
2006,07,20,11,34,23.50
2006,07,20,11,35,23.40
2006,07,20,11,36,23.40
2006,07,20,11,37,23.30
2006,07,20,11,38,23.40
2006,07,20,11,39,23.30
2006,07,20,11,40,23.40
2006,07,20,11,41,23.40
2006,07,20,11,42,23.50
2006,07,20,11,43,23.60
2006,07,20,11,44,23.70
2006,07,20,11,45,23.70
2006,07,20,11,46,23.70
2006,07,20,11,47,23.70
2006,07,20,11,48,23.70
2006,07,20,11,49,23.80
2006,07,20,11,50,23.80
2006,07,20,11,51,23.90
2006,07,20,11,52,24.00
2006,07,20,11,53,24.10
2006,07,20,11,54,24.10
2006,07,20,11,55,24.10
2006,07,20,11,56,24.10
2006,07,20,11,57,24.10
2006,07,20,11,58,24.10
2006,07,20,11,59,24.30
2006,07,20,12,00,24.30
2006,07,20,12,01,24.30
2006,07,20,12,02,24.30
2006,07,20,12,03,24.30
2006,07,20,12,04,24.20
2006,07,20,12,05,24.20
2006,07,20,12,06,24.20
2006,07,20,12,07,24.10
2006,07,20,12,08,24.10
2006,07,20,12,09,24.20
2006,07,20,12,10,24.40
2006,07,20,12,11,24.30
2006,07,20,12,12,24.30
2006,07,20,12,13,24.40
2006,07,20,12,14,24.50
2006,07,20,12,15,24.60
2006,07,20,12,16,24.70
2006,07,20,12,17,24.70
2006,07,20,12,18,24.60
2006,07,20,12,19,24.60
2006,07,20,12,20,24.50
2006,07,20,12,21,24.50
2006,07,20,12,22,24.50
2006,07,20,12,23,24.60
2006,07,20,12,24,24.50
2006,07,20,12,25,24.50
2006,07,20,12,26,24.50
2006,07,20,12,27,24.50
2006,07,20,12,28,24.40
2006,07,20,12,29,24.50
2006,07,20,12,30,24.50
2006,07,20,12,31,24.60
2006,07,20,12,32,24.70
2006,07,20,12,33,24.70
2006,07,20,12,34,24.70
2006,07,20,12,35,24.70
2006,07,20,12,36,24.70
2006,07,20,12,37,24.70
2006,07,20,12,38,24.70
2006,07,20,12,39,24.70
2006,07,20,12,40,24.70
2006,07,20,12,41,24.70
2006,07,20,12,42,24.80
2006,07,20,12,43,24.80
2006,07,20,12,44,24.70
2006,07,20,12,45,24.70
2006,07,20,12,46,24.80
2006,07,20,12,47,24.80
2006,07,20,12,48,24.70
2006,07,20,12,49,24.70
2006,07,20,12,50,24.70
2006,07,20,12,51,24.70
2006,07,20,12,52,24.60
2006,07,20,12,53,24.60
2006,07,20,12,54,24.60
2006,07,20,12,55,24.60
2006,07,20,12,56,24.70
2006,07,20,12,57,24.70
2006,07,20,12,58,24.70
2006,07,20,12,59,24.70
2006,07,20,13,00,24.50
2006,07,20,13,01,24.50
2006,07,20,13,02,24.50
2006,07,20,13,03,24.60
2006,07,20,13,04,24.70
2006,07,20,13,05,24.90
2006,07,20,13,06,24.90
2006,07,20,13,07,24.90
2006,07,20,13,08,24.90
2006,07,20,13,09,24.90
2006,07,20,13,10,24.90
2006,07,20,13,11,25.00
2006,07,20,13,12,25.10
2006,07,20,13,13,25.30
2006,07,20,13,14,25.40
2006,07,20,13,15,25.50
2006,07,20,13,16,25.60
2006,07,20,13,17,25.60
2006,07,20,13,18,25.60
2006,07,20,13,19,25.60
2006,07,20,13,20,25.60
2006,07,20,13,21,25.40
2006,07,20,13,22,25.50
2006,07,20,13,23,25.40
2006,07,20,13,24,25.40
2006,07,20,13,25,25.30
2006,07,20,13,26,25.30
2006,07,20,13,27,25.30
2006,07,20,13,28,25.40
2006,07,20,13,29,25.50
2006,07,20,13,30,25.50
2006,07,20,13,31,25.50
2006,07,20,13,32,25.40
2006,07,20,13,33,25.50
2006,07,20,13,34,25.60
2006,07,20,13,35,25.70
2006,07,20,13,36,25.80
2006,07,20,13,37,26.00
2006,07,20,13,38,26.00
2006,07,20,13,39,26.00
2006,07,20,13,40,26.10
2006,07,20,13,41,25.90
2006,07,20,13,42,25.80
2006,07,20,13,43,25.70
2006,07,20,13,44,25.70
2006,07,20,13,45,25.90
2006,07,20,13,46,25.90
2006,07,20,13,47,26.00
2006,07,20,13,48,26.10
2006,07,20,13,49,26.20
2006,07,20,13,50,26.20
2006,07,20,13,51,26.20
2006,07,20,13,52,26.30
2006,07,20,13,53,26.40
2006,07,20,13,54,26.30
2006,07,20,13,55,26.20
2006,07,20,13,56,26.10
2006,07,20,13,57,26.20
2006,07,20,13,58,26.20
2006,07,20,13,59,26.10
2006,07,20,14,00,26.10
2006,07,20,14,01,26.20
2006,07,20,14,02,26.30
2006,07,20,14,03,26.50
2006,07,20,14,04,26.60
2006,07,20,14,05,26.70
2006,07,20,14,06,26.70
2006,07,20,14,07,26.60
2006,07,20,14,08,26.50
2006,07,20,14,09,26.40
2006,07,20,14,10,26.50
2006,07,20,14,11,26.60
2006,07,20,14,12,26.60
2006,07,20,14,13,26.60
2006,07,20,14,14,26.60
2006,07,20,14,15,26.50
2006,07,20,14,16,26.40
2006,07,20,14,17,26.30
2006,07,20,14,18,26.30
2006,07,20,14,19,26.30
2006,07,20,14,20,26.40
2006,07,20,14,21,26.50
2006,07,20,14,22,26.60
2006,07,20,14,23,26.60
2006,07,20,14,24,26.80
2006,07,20,14,25,26.90
2006,07,20,14,26,27.10
2006,07,20,14,27,27.10
2006,07,20,14,28,27.10
2006,07,20,14,29,27.20
2006,07,20,14,30,27.20
2006,07,20,14,31,27.20
2006,07,20,14,32,27.20
2006,07,20,14,33,27.10
2006,07,20,14,34,26.90
2006,07,20,14,35,26.70
2006,07,20,14,36,26.70
2006,07,20,14,37,26.80
2006,07,20,14,38,26.90
2006,07,20,14,39,26.90
2006,07,20,14,40,27.10
2006,07,20,14,41,26.90
2006,07,20,14,42,27.00
2006,07,20,14,43,27.00
2006,07,20,14,44,26.70
2006,07,20,14,45,26.70
2006,07,20,14,46,26.60
2006,07,20,14,47,26.50
2006,07,20,14,48,26.30
2006,07,20,14,49,26.30
2006,07,20,14,50,26.40
2006,07,20,14,51,26.40
2006,07,20,14,52,26.40
2006,07,20,14,53,26.30
2006,07,20,14,54,26.40
2006,07,20,14,55,26.50
2006,07,20,14,56,26.60
2006,07,20,14,57,26.70
2006,07,20,14,58,26.80
2006,07,20,14,59,26.90
2006,07,20,15,00,27.00
2006,07,20,15,01,27.00
2006,07,20,15,02,27.10
2006,07,20,15,03,27.20
2006,07,20,15,04,27.10
2006,07,20,15,05,26.90
2006,07,20,15,06,27.00
2006,07,20,15,07,27.10
2006,07,20,15,08,27.30
2006,07,20,15,09,27.30
2006,07,20,15,10,27.30
2006,07,20,15,11,27.10
2006,07,20,15,12,27.10
2006,07,20,15,13,27.10
2006,07,20,15,14,27.00
2006,07,20,15,15,27.00
2006,07,20,15,16,27.10
2006,07,20,15,17,27.20
2006,07,20,15,18,27.30
2006,07,20,15,19,27.40
2006,07,20,15,20,27.50
2006,07,20,15,21,27.50
2006,07,20,15,22,27.40
2006,07,20,15,23,27.40
2006,07,20,15,24,27.40
2006,07,20,15,25,27.50
2006,07,20,15,26,27.40
2006,07,20,15,27,27.40
2006,07,20,15,28,27.50
2006,07,20,15,29,27.60
2006,07,20,15,30,27.60
2006,07,20,15,31,27.40
2006,07,20,15,32,27.30
2006,07,20,15,33,27.30
2006,07,20,15,34,27.40
2006,07,20,15,35,27.60
2006,07,20,15,36,27.60
2006,07,20,15,37,27.70
2006,07,20,15,38,27.70
2006,07,20,15,39,27.70
2006,07,20,15,40,27.70
2006,07,20,15,41,27.80
2006,07,20,15,42,27.80
2006,07,20,15,43,28.00
2006,07,20,15,44,28.10
2006,07,20,15,45,28.20
2006,07,20,15,46,28.30
2006,07,20,15,47,28.30
2006,07,20,15,48,28.40
2006,07,20,15,49,28.40
2006,07,20,15,50,28.20
2006,07,20,15,51,28.00
2006,07,20,15,52,28.00
2006,07,20,15,53,27.90
2006,07,20,15,54,27.70
2006,07,20,15,55,27.70
2006,07,20,15,56,27.60
2006,07,20,15,57,27.40
2006,07,20,15,58,27.50
2006,07,20,15,59,27.60
2006,07,20,16,00,27.70
2006,07,20,16,01,27.70
2006,07,20,16,02,27.80
2006,07,20,16,03,27.80
2006,07,20,16,04,28.00
2006,07,20,16,05,28.10
2006,07,20,16,06,28.30
2006,07,20,16,07,28.50
2006,07,20,16,08,28.60
2006,07,20,16,09,28.80
2006,07,20,16,10,28.90
2006,07,20,16,11,28.90
2006,07,20,16,12,28.90
2006,07,20,16,13,28.90
2006,07,20,16,14,28.80
2006,07,20,16,15,28.80
2006,07,20,16,16,28.80
2006,07,20,16,17,28.80
2006,07,20,16,18,28.80
2006,07,20,16,19,28.70
2006,07,20,16,20,28.70
2006,07,20,16,21,28.70
2006,07,20,16,22,28.70
2006,07,20,16,23,28.70
2006,07,20,16,24,28.70
2006,07,20,16,25,28.60
2006,07,20,16,26,28.60
2006,07,20,16,27,28.60
2006,07,20,16,28,28.60
2006,07,20,16,29,28.60
2006,07,20,16,30,28.50
2006,07,20,16,31,28.40
2006,07,20,16,32,28.30
2006,07,20,16,33,28.20
2006,07,20,16,34,28.20
2006,07,20,16,35,28.20
2006,07,20,16,36,28.30
2006,07,20,16,37,28.30
2006,07,20,16,38,28.20
2006,07,20,16,39,28.10
2006,07,20,16,40,28.10
2006,07,20,16,41,28.10
2006,07,20,16,42,28.20
2006,07,20,16,43,28.30
2006,07,20,16,44,28.30
2006,07,20,16,45,28.30
2006,07,20,16,46,28.20
2006,07,20,16,47,28.10
2006,07,20,16,48,28.00
2006,07,20,16,49,28.00
2006,07,20,16,50,28.10
2006,07,20,16,51,28.20
2006,07,20,16,52,28.30
2006,07,20,16,53,28.30
2006,07,20,16,54,28.30
2006,07,20,16,55,28.30
2006,07,20,16,56,28.40
2006,07,20,16,57,28.30
2006,07,20,16,58,28.30
2006,07,20,16,59,28.40
2006,07,20,17,00,28.40
2006,07,20,17,01,28.50
2006,07,20,17,02,28.60
2006,07,20,17,03,28.40
2006,07,20,17,04,28.30
2006,07,20,17,05,28.40
2006,07,20,17,06,28.60
2006,07,20,17,07,28.70
2006,07,20,17,08,28.70
2006,07,20,17,09,28.60
2006,07,20,17,10,28.50
2006,07,20,17,11,28.40
2006,07,20,17,12,28.50
2006,07,20,17,13,28.60
2006,07,20,17,14,28.70
2006,07,20,17,15,28.80
2006,07,20,17,16,28.90
2006,07,20,17,17,28.80
2006,07,20,17,18,28.90
2006,07,20,17,19,28.90